Location: La Sioule Rivi�re
(46.3664°N, 3.3197°E)
Time: 13:07:18
(UTC+00:00)

Cosmos 883 Rocket - Pass Details

Date: 29 October 2020
Orbit: 950 x 995 km, 83.0° (Epoch: 23 November)

Event Time Altitude Azimuth Distance (km) Brightness Sun altitude
Rises 18:50:54 0° 188° (S) 3,635 7.5 -23.8°
Reaches altitude 10° 18:53:23 10° 189° (S) 2,687 6.8 -24.2°
Maximum altitude 18:59:32 84° 277° (W) 966 4.4 -25.3°
Drops below altitude 10° 19:05:42 10° 7° (N) 2,688 6.8 -26.3°
Sets 19:08:12 0° 9° (N) 3,636 7.5 -26.7°
